Location: Unspecified
(35.6961°N, 0.0000°E)
Time: 13:47:37
(UTC+00:00)

Vanguard 2 Rocket - Pass Details

Date: 02 June 2019
Orbit: 555 x 3326 km, 32.9° (Epoch: 25 June)

Event Time Altitude Azimuth Distance (km) Brightness Sun altitude
Rises 06:17:28 0° 273° (W) 7,314 10.9 16.5°
Reaches altitude 10° 06:22:29 10° 272° (W) 6,262 10.6 17.5°
Maximum altitude 06:42:10 77° 191° (S) 2,697 9.6 21.4°
Drops below altitude 10° 06:54:38 10° 108° (ESE) 4,211 11.5 23.8°
Sets 06:57:19 0° 106° (ESE) 4,903 11.7 24.4°
